Details From LIMF - Torino Caselle
To LIMJ - Genova Sestri
Flight Number -
Tags generated
Created
Modified
Stats Distance 70 nm / 129 km
Max Altitude 2,800 ft / 853 m
Waypoints 3
Social Downloads 0
Likes 0
Share VATSIM

Download

Looking for another format? Having issues loading an existing format? Contact us
Advertisement - Login to hide

Notes

Basic altitude profile: - Ascent Rate: 2500ft/min - Ascent Speed: 250kts - Cruise Altitude: 35000ft - Cruise Speed: 420kts - Descent Rate: 1500ft/min - Descent Speed: 250kts Options: - Use NATs: yes - Use PACOTS: yes - Use low airways: yes - Use high airways: yes

Route

LIMF TESTO LIMJ

ID Type Via Altitude (ft/m) Position (lat/lon) Dist (leg/tot) Name
O LIMF APT - 0 / 0 45.20076 / 7.64963 - / 0 nm Torino Caselle
TESTO FIX - 2,800 / 853 44.59722 / 8.66556 56 / 56 nm
O LIMJ APT - 0 / 0 44.41196 / 8.84187 13 / 69 nm Genova Sestri

Altitude Profile

Advertisement - Login to hide

LIMF

Details ICAO LIMF (TRN)
Name Turin-Caselle
Region Italy
Timezone Europe/Rome (UTC+1.0)
Stats Elevation 988 ft / 301 m (AMSL)
Location 45.200800° 7.649650°
Runways 1
Magnetic Variation 2.229° E

METAR

LIMF 151420Z 18002KT 4000 BR SCT030 10/10 Q1025

Decode

TAF

TAF LIMF 151100Z 1512/1612 VRB05KT 2500 BR BKN010 TEMPO 1520/1606 0500 FG BKN003 BECMG 1608/1610 4000

Decode

Departure Runways

ID Width Length Bearing (true/mag) Surface Threshold Overrun Markings Lighting
18 197 ft / 60 m 10,837 ft / 3,303 m 182.56° / 180.33° ASPHALT 2,372 ft / 723 m 1,647 ft / 502 m APP CENTERLINE EDGE THRESHOLD ALSF-II TDZ REIL-OMNI
36 197 ft / 60 m 10,837 ft / 3,303 m 2.56° / 0.33° ASPHALT 1,138 ft / 347 m 0 ft / 0 m PREC-APP CENTERLINE EDGE THRESHOLD ALSF-II REIL-OMNI

LIMJ

Details ICAO LIMJ (GOA)
Name Genova Cristoforo Colombo Airport
Region Italy
Timezone Unknown
Stats Elevation 13 ft / 4 m (AMSL)
Location 44.412000° 8.841800°
Runways 1
Magnetic Variation 2.492° E

METAR

LIMJ 151420Z 03007KT 340V070 CAVOK 17/09 Q1023

Decode

TAF

TAF LIMJ 151100Z 1512/1612 04010KT CAVOK

Decode

Destination Runways

ID Width Length Bearing (true/mag) Surface Threshold Overrun Markings Lighting
10 148 ft / 45 m 9,577 ft / 2,919 m 105.33° / 102.84° CONCRETE 0 ft / 0 m 0 ft / 0 m PREC-APP CENTERLINE EDGE THRESHOLD SALS REIL-OMNI
28 148 ft / 45 m 9,577 ft / 2,919 m 285.36° / 282.87° CONCRETE 522 ft / 159 m 0 ft / 0 m PREC-APP CENTERLINE EDGE THRESHOLD SALS REIL-OMNI

Approach Navaids

Runway Type Ident Frequency Range Bearing (true/mag) Slope Elevation
28 DME GSE 109.30 MHz 18 nm / 33 km - - 26 ft / 8 m (AMSL)
28 LOC-ILS GSE 109.30 MHz 18 nm / 33 km 285.40° / 282.91 ° - 9 ft / 3 m (AMSL)
28 GS GSE 109.30 MHz 10 nm / 19 km 285.40° / 282.91 ° 3.17° 26 ft / 8 m (AMSL)

Popular Alternatives